Regional Weather Roundup
Issued by NWS

Home | Current Version | Previous Version | Graphics & Text | Print | Product List | Glossary On
Versions: 1 2 3 4 5 6 7 8 9 10 11 12 13 14 15 16 17 18 19 20 21 22 23 24 25 26 27 28 29 30 31 32 33 34 35 36 37 38 39 40 41 42 43 44 45 46 47 48 49 50
000
ASUS43 KMKX 240510
RWRWI

WISCONSIN REGIONAL WEATHER ROUNDUP
NATIONAL WEATHER SERVICE MILWAUKEE/SULLIVAN WI
1200 AM CDT THU JUL 24 2014

NOTE: "FAIR" INDICATES FEW OR NO CLOUDS BELOW 12,000 FEET WITH NO
SIGNIFICANT WEATHER AND/OR OBSTRUCTIONS TO VISIBILITY.

WIZ001-002-006>008-014>016-023>028-240600-
NORTHWEST WISCONSIN

CITY           SKY/WX    TMP DP  RH WIND       PRES   REMARKS
SUPERIOR ARPT  CLEAR     54  53  97 CALM      30.19S
ASHLAND        PTCLDY    52  51  97 N3        30.19S FOG
HAYWARD        CLEAR     55  53  93 CALM      30.19S
SIREN          PTCLDY    58  55  89 CALM      30.18R
RICE LAKE      CLEAR     58  55  91 CALM      30.19S
LADYSMITH      CLEAR     57  52  82 CALM      30.20S
EAU CLAIRE     CLEAR     60  57  89 NE5       30.16S
MENOMONIE      CLEAR     64  56  76 CALM      30.17S
NEW RICHMOND   CLEAR     60  58  91 CALM      30.17S
OSCEOLA        PTCLDY    60  59  94 CALM      30.19S
$$

WIZ003>005-009-010-017-018-240600-
NORTH CENTRAL WISCONSIN

CITY           SKY/WX    TMP DP  RH WIND       PRES   REMARKS
WOODRUFF       CLEAR     52  45  76 CALM      30.21S
RHINELANDER    CLEAR     52  49  89 CALM      30.21S
EAGLE RIVER    PTCLDY    48  48 100 CALM      30.20F
LAND O LAKES   CLEAR     46  46  97 CALM      30.22S
PHILLIPS       CLEAR     52  51  98 CALM      30.20S
TOMAHAWK       CLEAR     49  47  95 CALM      30.20S
MEDFORD        CLEAR     55  51  86 CALM      30.19S
MERRILL        CLEAR     53  52  95 CALM      30.19S
$$

WIZ029-030-035-036-043>047-240600-
CENTRAL WISCONSIN

CITY           SKY/WX    TMP DP  RH WIND       PRES   REMARKS
WAUSAU         MOCLDY    61  53  75 E6        30.17S
MOSINEE        PTCLDY    57  54  88 NE5       30.19S
MARSHFIELD     CLEAR     64  55  72 N6        30.17S
STEVENS POINT  MOCLDY    58  53  83 NE5       30.18S
WAUPACA        CLEAR     61  55  80 CALM      30.19R
WAUTOMA        CLEAR     59  55  86 CALM      30.19R
WISC RAPIDS    CLEAR     60  54  80 CALM      30.18R
CAMP DOUGLAS   PTCLDY    57  57 100 SE1       30.16R
$$

WIZ011>013-019>022-031-037>040-048>050-240600-
NORTHEAST WISCONSIN

CITY           SKY/WX    TMP DP  RH WIND       PRES   REMARKS
ANTIGO         CLOUDY    57  52  84 SE3       30.21R
STURGEON BAY   CLEAR     57  46  67 CALM      30.19R
GREEN BAY      CLEAR     56  51  84 CALM      30.18S
MANITOWOC      CLEAR     54  51  90 CALM      30.19R
APPLETON       MOCLDY    59  45  58 SE6       30.19S
CLINTONVILLE   CLOUDY    59  52  77 CALM      30.19R
OSHKOSH        CLEAR     57  51  80 S3        30.18R
$$

WIZ032>034-041-042-053>061-240600-
SOUTHWEST WISCONSIN

CITY           SKY/WX    TMP DP  RH WIND       PRES   REMARKS
LA CROSSE      CLEAR     67  61  81 SE3       30.14S
SPARTA         CLEAR     56  53  92 CALM      30.17S
VIROQUA        FAIR      62  56  82 E5        30.17S
BOSCOBEL       PTCLDY    59  57  93 CALM      30.16R FOG
PRAIRIE DU CHI PTCLDY    62  57  84 CALM      30.14S
PLATTEVILLE    FAIR      63  57  82 E8        30.17S
$$

WIZ056-057-062-063-064-067-068-240600-
SOUTH CENTRAL WISCONSIN

CITY           SKY/WX    TMP DP  RH WIND       PRES   REMARKS
BARABOO/DELLS  PTCLDY    61  55  80 CALM      30.18R
LONE ROCK      CLOUDY    67  60  78 CALM      30.17R
WATERTOWN      CLEAR     56  50  82 CALM      30.17S
MADISON        PTCLDY    61  51  70 SE3       30.18R
MIDDLETON      MOCLDY    63  50  61 SE6       30.19R
MONROE         PTCLDY    59  54  82 E5        30.18S
JANESVILLE     CLEAR     55  50  82 CALM      30.17S
$$

WIZ051-052-058>065-066-070>072-240600-
SOUTHEAST WISCONSIN

CITY           SKY/WX    TMP DP  RH WIND       PRES   REMARKS
MILWAUKEE      CLEAR     58  50  75 N6        30.17R
WAUKESHA       CLEAR     54  46  76 CALM      30.18F
MILWAUKEE/TIMM CLEAR     55  46  71 CALM      30.18S
RACINE         CLEAR     57  52  83 N7        30.18R
BURLINGTON     CLEAR     49  48  95 CALM      30.17S
KENOSHA        CLEAR     56  52  86 N5        30.16S
FOND DU LAC    CLEAR     56  50  80 CALM      30.18S
SHEBOYGAN      CLEAR     51  49  92 CALM      30.18S
WEST BEND      CLEAR     52  48  87 CALM      30.18S
JUNEAU         PTCLDY    57  49  75 CALM      30.19S
$$

LSZ147-162-240600-
LAKE SUPERIOR

STATION/POSITION TIME  TEMP    WIND        PRES    WAVE
                       AIR SEA DIR/SP/G            HT/PER
                 (UTC) (F)     (DEG/KT/KT) (MB)    (FT/S)
$$

LMZ867-665-643>646-240600-
LAKE MICHIGAN

STATION/POSITION TIME  TEMP    WIND        PRES    WAVE
                       AIR SEA DIR/SP/G            HT/PER
                 (UTC) (F)     (DEG/KT/KT) (MB)    (FT/S)
$$

TC  - TEMPERATURE IN CELSIUS
VSB - VISIBILITY IN STATUTE MILES
WCI - WIND CHILL INDEX
HX  - HEAT INDEX



USA.gov is the U.S. government's official web portal to all federal, state and local government web resources and services.